Theta_e
345 345 344 344 343 341 340 339 336 334 334 333 330 323 316 312 313 315 317 321 327 332 329 317 314 316 320 325 327 328 328 328 328 328 327 327 325 324 323 322 322 322 322 322 322 321 320 322 324 324 324 326 329 332 335 336 337 336 338 338 335 333
345 345 345 344 343 341 339 338 335 335 334 332 326 318 315 315 320 328 331 334 337 339 339 331 324 319 317 321 324 324 327 328 328 328 328 328 326 325 323 321 320 318 318 318 319 319 319 324 327 328 328 329 331 334 336 335 337 338 338 338 334 334
345 345 346 345 345 341 338 337 336 336 334 328 320 315 317 319 326 335 336 337 339 339 340 337 333 328 320 320 323 323 325 327 327 328 328 328 327 325 323 321 320 318 318 319 320 320 324 330 332 331 330 331 333 335 335 335 338 339 338 337 335 334
345 346 346 346 345 340 339 340 339 339 333 323 321 325 328 330 332 336 338 338 339 339 339 337 338 338 327 317 318 321 323 325 326 326 326 325 324 322 321 321 320 319 319 321 324 325 329 335 336 334 332 334 335 334 334 337 339 339 338 337 336 336
345 346 345 345 344 341 342 343 342 341 334 327 332 337 337 337 336 336 338 338 339 340 340 340 340 339 330 320 317 318 320 322 322 323 323 322 323 326 325 324 325 324 322 325 330 332 334 336 336 336 335 335 335 334 335 337 339 339 338 336 336 336
344 346 345 344 344 343 343 343 342 342 338 335 339 338 336 337 338 337 338 338 340 341 340 340 339 338 337 332 327 324 323 324 325 327 326 326 332 336 336 334 334 333 330 332 335 336 337 337 336 337 336 335 334 334 335 338 340 338 337 335 335 336
343 345 345 345 344 344 343 342 342 341 340 339 338 337 336 338 338 338 339 340 341 341 341 341 341 341 342 339 337 336 334 333 335 337 335 334 337 339 338 337 337 336 334 336 337 337 338 338 337 337 336 335 334 335 336 338 339 337 336 334 334 335
343 344 345 346 345 344 343 341 341 340 340 337 336 337 337 338 338 339 341 341 341 341 341 341 341 341 342 340 338 339 338 338 338 338 338 338 339 338 337 338 337 336 336 336 338 338 338 337 337 337 336 335 335 336 337 338 338 337 335 332 331 332
343 344 343 345 345 343 342 341 341 340 339 337 336 337 338 338 338 340 342 342 342 342 341 340 339 339 340 339 338 338 338 338 338 337 338 338 339 339 338 339 337 336 336 336 337 337 336 337 336 335 335 335 335 336 336 337 337 336 335 331 329 329
343 344 342 343 343 342 342 341 342 340 338 336 336 337 337 338 338 340 342 342 342 342 341 340 339 338 339 340 338 338 338 338 338 337 338 337 338 338 338 339 338 336 336 336 336 336 335 336 335 334 334 335 335 335 335 336 336 335 334 331 329 327
342 344 343 343 342 342 341 342 341 340 338 335 336 338 337 338 339 339 340 342 342 341 341 340 339 339 339 340 338 338 337 337 338 336 336 336 337 337 337 337 337 337 337 336 336 336 336 335 335 334 334 334 334 334 333 333 334 335 334 331 329 327
343 343 344 343 342 342 341 342 341 339 339 336 337 339 338 338 339 339 340 342 341 341 341 340 340 339 338 338 337 338 338 337 338 337 336 336 337 337 336 337 337 338 337 337 337 337 337 336 335 334 333 332 331 332 332 331 331 332 333 332 330 327
342 342 343 343 342 342 342 342 341 339 338 337 338 339 338 338 339 339 341 341 341 341 342 341 341 340 339 338 337 338 337 337 339 338 337 337 337 336 335 336 337 337 337 337 337 336 336 336 334 333 332 331 330 329 329 329 329 329 330 330 330 328
341 342 343 342 342 343 342 342 340 339 338 338 339 339 338 338 339 339 340 341 341 341 342 339 339 340 339 339 338 338 337 338 338 337 337 337 337 336 335 337 338 338 337 337 336 335 335 335 333 331 330 329 328 327 326 326 327 327 327 326 326 324
341 343 342 342 343 342 342 341 340 339 339 340 339 338 339 339 339 339 340 341 341 341 341 338 338 339 338 339 339 338 338 338 337 337 337 337 337 336 337 338 337 338 337 336 335 334 334 333 332 330 328 327 325 324 324 324 323 324 323 322 321 320
341 343 343 342 342 342 342 341 339 339 340 340 339 339 340 339 338 338 340 341 341 341 340 338 338 338 338 338 338 338 338 338 337 337 336 336 336 336 336 337 336 337 337 336 334 333 334 333 331 328 327 325 323 322 321 321 320 320 319 318 317 316
342 343 343 343 343 342 342 340 339 339 340 340 339 339 339 339 338 339 340 341 341 341 339 338 338 337 337 338 338 338 337 337 337 337 336 335 335 335 335 336 335 335 335 335 334 333 333 331 329 327 325 323 321 320 319 318 318 317 316 315 313 312
343 343 343 343 343 342 342 340 340 340 340 340 339 339 339 339 339 340 340 340 341 341 339 338 338 337 337 337 338 337 337 336 336 336 336 335 334 333 334 334 335 334 333 333 334 334 332 330 327 325 323 321 319 318 317 316 316 315 314 313 312 311
343 343 343 343 343 342 342 340 340 340 340 340 339 340 340 339 340 340 340 340 340 340 339 338 337 336 337 337 337 336 336 335 335 335 335 335 334 333 333 333 333 332 332 331 332 333 331 328 326 324 323 321 319 317 316 315 314 314 313 312 312 311
343 343 342 343 343 342 341 341 340 340 340 340 340 341 341 340 340 340 340 339 339 338 338 338 336 336 336 335 335 335 335 334 334 333 333 334 333 334 333 333 332 331 332 331 330 332 329 326 325 323 322 320 319 317 315 314 312 312 311 310 311 310
343 343 342 343 343 342 341 341 340 340 340 340 340 340 341 340 340 340 340 338 338 337 338 337 336 335 334 334 334 333 334 333 332 332 332 332 332 331 330 331 330 329 331 330 329 331 329 326 325 323 322 320 318 317 315 314 312 311 310 309 309 308
343 342 342 342 342 341 341 341 340 340 340 339 339 340 340 340 340 340 340 338 337 337 337 336 335 334 333 334 333 333 333 331 331 330 330 330 330 329 329 330 330 327 330 331 329 330 329 327 326 324 323 322 319 317 315 313 311 310 309 309 309 308
342 342 342 341 341 341 341 340 340 339 339 338 338 339 339 339 338 338 338 337 336 336 335 334 333 333 333 333 332 332 330 329 329 329 329 330 329 329 328 329 329 327 327 328 329 330 329 329 328 325 325 325 322 320 317 313 310 309 308 308 308 309
342 342 342 341 340 340 340 339 339 338 337 337 338 338 338 337 337 337 336 336 335 334 333 332 332 332 331 331 330 330 329 329 328 327 328 329 328 328 328 328 329 327 325 324 326 327 328 330 330 328 327 328 326 325 322 316 310 308 307 307 307 307
343 342 341 340 339 339 339 339 338 338 337 337 338 337 336 336 335 335 334 334 333 333 332 331 331 331 330 329 329 328 328 328 326 325 326 327 327 327 327 327 328 328 326 324 323 322 322 325 328 326 325 327 329 330 326 315 312 312 309 307 307 305
343 342 341 339 338 338 338 338 338 338 337 338 337 337 336 335 334 334 333 332 332 331 330 330 330 330 329 328 327 326 326 326 325 325 326 326 326 326 326 325 325 325 323 321 320 317 316 319 322 321 319 320 323 327 323 316 316 316 311 308 308 307
342 341 340 339 339 338 338 339 339 338 338 338 337 337 336 335 334 333 332 331 331 330 329 329 329 329 328 326 325 325 324 324 323 323 324 325 325 324 323 323 322 322 321 320 318 315 312 312 315 315 314 314 315 318 320 319 319 317 313 311 309 307
342 341 340 339 338 339 339 339 339 338 338 337 336 336 336 334 333 332 331 330 329 329 329 329 328 328 326 325 325 324 323 322 321 321 322 322 322 321 320 320 320 321 322 321 318 314 311 311 312 312 312 312 311 313 315 316 316 315 317 316 312 309
341 340 339 338 338 339 340 340 339 338 338 337 336 336 336 334 332 332 331 329 328 328 329 328 327 326 325 324 324 322 321 320 319 319 320 320 319 318 317 317 317 319 319 319 317 315 314 314 314 314 313 313 311 311 311 311 312 312 315 317 315 312
341 341 340 338 339 340 340 340 339 338 338 337 336 336 334 332 331 331 330 329 329 329 328 327 325 325 324 323 322 321 320 318 317 317 317 316 316 315 314 314 314 315 316 316 315 315 315 314 314 314 314 314 313 312 313 312 312 311 313 315 315 313
341 341 341 339 339 340 340 339 338 338 338 337 336 335 333 331 330 330 329 329 329 328 327 326 325 324 323 323 321 319 318 317 316 315 314 313 312 312 311 311 312 312 313 313 313 313 313 312 312 312 312 312 312 312 312 313 312 311 312 313 315 315
341 342 341 340 340 340 340 339 338 338 337 336 335 333 332 331 330 330 329 328 328 328 326 325 324 323 323 322 321 318 317 317 316 314 313 311 311 310 310 311 311 312 313 313 313 312 311 311 310 310 310 310 310 310 310 310 310 310 311 310 312 314
341 341 341 341 340 340 339 339 339 339 338 336 334 333 332 331 330 330 329 328 328 327 326 325 324 323 322 322 320 318 317 317 315 313 312 311 310 310 310 310 311 311 312 313 312 311 311 310 310 309 309 309 309 309 308 309 308 309 309 308 309 310
341 341 341 341 340 339 339 339 339 338 337 336 334 333 332 331 331 330 329 328 327 327 326 324 324 322 321 321 319 318 317 315 314 312 310 310 310 309 309 309 309 309 310 311 310 310 310 310 309 309 309 308 308 308 308 307 307 307 307 307 307 308
341 341 341 341 340 339 339 339 339 338 336 335 334 333 332 331 330 329 329 328 327 326 326 324 323 322 321 320 319 317 316 314 312 311 309 309 309 309 309 309 308 308 308 309 308 308 309 309 308 308 308 308 307 307 307 307 306 307 306 306 306 306
341 341 341 341 340 339 339 339 338 338 336 335 334 333 332 331 330 329 329 328 327 326 325 324 323 322 320 319 318 316 314 313 311 310 309 309 309 309 308 307 306 306 307 307 307 307 308 308 307 307 307 307 306 306 306 306 306 306 306 305 305 305
341 341 341 341 340 339 339 339 338 337 336 335 334 333 332 331 329 329 328 327 327 326 324 323 322 321 319 318 317 315 313 312 310 309 309 309 309 308 307 306 306 307 307 308 308 308 307 307 307 307 306 306 306 306 305 305 305 305 305 305 305 305
Wind_Speed
18 17 17 18 17 17 16 15 13 12 10 8 6 7 7 9 10 10 11 11 9 8 6 5 6 6 8 11 11 10 9 8 8 8 7 7 6 5 4 3 4 4 4 5 4 4 3 2 1 3 4 5 6 6 6 6 5 6 8 6 8 9
19 19 18 17 17 17 17 16 14 12 10 8 8 8 9 11 12 11 10 10 9 6 1 2 5 5 7 10 10 10 9 8 7 7 6 6 5 4 3 3 3 3 3 4 5 6 5 5 3 1 2 4 4 4 3 4 6 7 6 5 7 8
20 20 19 17 16 17 18 16 14 12 10 10 10 10 10 12 11 8 7 7 7 7 5 1 3 5 6 7 9 8 9 8 7 7 6 6 5 4 3 3 4 3 4 5 7 8 6 7 6 3 1 3 1 4 2 4 7 7 5 5 7 7
20 20 19 18 16 17 18 15 14 12 10 11 12 11 10 10 10 7 6 4 4 7 8 5 5 6 5 6 8 8 8 8 7 7 7 6 6 6 5 6 6 6 7 8 9 10 8 9 8 6 2 4 2 4 3 7 8 6 5 7 8 6
21 20 20 21 17 18 19 16 15 12 10 11 12 11 10 11 9 7 8 7 6 8 8 7 8 9 5 4 5 6 7 7 7 7 7 7 6 6 6 6 6 8 8 8 9 11 9 8 5 4 4 5 1 2 6 9 8 7 5 7 8 6
22 21 21 21 18 18 18 17 16 14 11 10 13 13 10 11 10 9 8 8 8 8 7 8 9 9 5 5 5 5 6 6 7 7 7 8 7 8 8 7 8 10 9 9 8 6 4 4 2 2 2 5 3 1 6 11 10 7 5 6 7 6
22 21 20 20 19 19 18 17 16 14 13 11 13 13 10 10 10 10 9 7 7 7 8 8 8 7 6 8 8 7 8 8 9 9 8 8 8 9 8 7 9 10 7 5 4 3 2 0 0 2 2 5 5 4 9 12 11 8 6 7 8 7
20 19 20 19 18 18 17 16 15 14 14 13 12 11 10 10 9 10 9 8 7 8 8 8 7 5 5 7 7 7 8 9 10 9 8 8 8 8 6 4 5 5 3 2 3 3 2 1 1 0 2 5 6 8 11 13 12 10 8 9 11 9
20 19 18 18 17 17 15 14 15 14 13 12 12 11 10 10 9 8 8 8 7 7 6 6 5 4 4 5 5 7 6 7 7 6 6 6 7 7 5 3 3 3 4 3 4 2 2 2 2 2 3 6 6 7 11 13 13 10 7 9 11 11
20 19 18 17 16 16 15 15 14 13 12 11 11 10 10 9 9 8 7 7 7 6 5 4 3 3 4 3 3 6 5 5 3 3 5 5 5 4 3 3 3 3 3 3 2 1 1 2 1 2 5 7 7 7 8 10 11 9 7 8 10 11
20 19 19 17 16 16 15 15 14 13 11 12 10 9 10 9 8 7 7 6 5 5 4 6 5 4 4 3 4 6 6 6 6 5 6 5 3 2 3 3 4 3 2 3 2 1 1 2 3 4 7 9 9 9 9 9 10 9 7 8 10 13
22 19 18 17 15 16 16 14 13 12 11 12 12 10 9 8 7 7 6 5 5 5 4 6 7 6 7 7 7 8 9 9 9 8 6 3 3 3 5 3 4 4 3 3 3 2 3 4 6 9 10 10 12 12 10 10 11 11 10 8 9 12
22 20 17 16 16 16 16 14 12 11 10 12 12 10 9 8 7 6 6 5 5 5 4 4 5 6 7 8 7 7 7 7 7 5 4 3 2 6 8 4 5 4 4 4 4 4 5 5 6 9 11 11 12 13 12 10 9 11 13 11 9 10
21 20 17 15 16 16 15 14 12 11 11 12 11 9 9 8 7 6 5 5 5 4 3 3 5 6 5 6 7 7 6 6 5 4 4 3 2 6 5 2 4 4 4 5 5 5 5 7 9 11 11 12 11 11 12 11 10 9 9 11 11 10
19 19 17 16 16 16 15 14 12 11 12 12 10 9 8 8 7 7 6 5 4 3 3 3 5 5 4 6 7 7 7 6 4 3 5 4 2 4 0 2 3 3 3 4 5 6 8 9 11 14 12 12 12 11 10 10 12 11 9 9 8 8
19 18 18 17 16 16 15 14 12 11 12 11 10 8 8 7 7 6 6 6 4 3 3 3 5 5 5 7 6 6 7 6 3 2 3 2 3 3 1 2 3 3 2 3 4 6 11 11 11 12 12 12 11 11 11 10 11 11 10 10 8 7
20 19 19 18 16 16 15 14 12 11 11 11 10 8 8 7 6 7 7 7 6 5 5 4 5 6 7 6 6 7 7 6 4 2 1 0 2 3 1 3 4 1 3 2 2 6 12 12 12 12 12 12 11 10 11 10 10 9 9 9 9 7
21 20 20 19 17 16 15 14 12 11 12 11 9 8 8 7 6 7 7 7 6 6 6 6 6 8 9 8 7 7 6 6 4 2 2 3 3 3 3 1 2 0 2 1 5 9 15 13 13 14 13 12 10 9 10 9 8 8 8 8 8 7
22 22 21 20 18 16 15 14 12 12 12 11 9 8 8 8 7 7 7 7 7 7 7 7 8 9 9 9 8 6 6 5 3 2 3 4 3 2 2 1 1 1 1 1 5 10 14 15 16 15 13 11 9 9 9 9 8 7 8 7 6 6
24 24 22 21 19 17 15 14 13 12 12 11 10 8 8 8 8 8 6 6 7 10 10 9 9 8 8 7 5 4 4 2 1 3 4 5 2 1 3 2 1 2 2 2 5 9 13 16 17 15 12 10 8 8 7 8 8 7 6 6 5 5
25 25 24 22 20 19 17 16 15 14 13 12 10 10 9 8 9 9 7 6 8 12 12 10 10 9 9 9 6 4 2 1 2 4 4 5 4 2 3 2 1 1 3 4 6 8 11 13 13 12 10 8 8 8 7 7 6 6 5 4 4 4
26 25 24 24 24 21 19 18 17 15 13 12 11 10 10 9 10 10 8 6 9 12 12 10 10 10 9 9 8 7 4 4 4 4 4 4 3 2 3 3 3 2 3 5 5 9 11 9 9 11 9 7 7 6 5 5 5 5 4 4 4 4
26 25 24 24 24 22 20 18 17 15 13 13 12 10 11 12 11 11 11 9 9 10 10 9 8 9 8 6 6 5 4 5 5 4 5 5 4 4 4 3 5 4 5 5 5 8 9 5 6 12 11 6 4 4 3 3 4 4 4 4 4 4
27 26 23 23 22 21 20 18 16 15 13 13 13 12 12 12 11 11 11 11 11 11 9 8 7 6 5 4 3 3 3 4 4 4 4 3 4 3 2 3 4 4 4 5 5 5 4 3 4 9 5 1 4 4 1 4 6 4 3 4 3 4
28 26 24 24 22 20 20 18 16 15 14 14 14 13 12 11 11 10 9 10 11 11 8 7 6 4 3 2 1 2 3 3 3 4 2 2 4 4 3 3 3 3 2 3 7 4 2 3 4 5 2 2 2 1 1 7 8 4 4 4 4 3
27 25 25 25 23 21 21 19 18 18 17 18 16 14 14 13 12 12 11 10 9 9 8 7 6 3 2 2 1 2 4 3 3 5 4 4 5 5 5 4 4 3 3 6 7 5 4 4 3 2 2 3 1 2 2 8 7 2 4 4 3 3
26 26 25 26 24 23 23 21 20 19 18 18 16 15 15 14 14 13 13 12 11 10 8 7 5 3 2 2 1 3 5 4 4 5 5 6 6 5 5 5 6 6 6 7 6 6 7 7 5 4 3 3 3 2 3 5 4 2 4 4 4 5
26 26 26 27 26 24 24 23 22 20 18 17 16 15 15 16 16 16 15 13 12 10 8 5 4 3 3 4 3 3 5 5 5 5 6 7 6 6 6 6 7 8 8 7 7 8 8 7 7 6 5 5 4 3 3 4 3 1 2 3 4 5
25 25 26 27 27 25 25 24 23 22 19 18 17 17 17 18 17 17 15 13 11 10 8 6 5 5 4 5 5 4 5 6 5 5 7 7 7 8 7 7 8 8 8 9 10 11 10 9 8 7 5 4 4 5 5 5 6 5 2 2 3 5
25 25 26 27 28 26 25 24 23 22 20 19 19 19 19 18 17 17 16 13 12 10 8 6 6 6 5 6 7 5 5 6 6 7 7 7 7 8 9 9 10 9 9 10 10 11 11 10 10 9 9 8 8 8 7 7 10 11 6 2 2 3
26 25 27 28 29 27 25 25 24 22 21 21 22 21 20 19 18 18 16 14 13 11 9 8 7 6 4 6 8 6 6 6 7 7 8 8 8 9 10 11 11 11 11 10 11 11 11 11 10 10 11 12 13 12 10 10 11 13 10 7 6 1
27 26 27 28 29 27 26 25 23 22 23 24 24 22 21 20 19 19 17 16 14 12 10 9 8 6 4 5 6 6 6 7 8 8 9 9 10 10 11 11 12 13 13 12 12 12 13 12 11 12 12 12 12 12 12 12 11 11 11 10 9 7
28 27 27 28 29 28 27 25 24 24 25 25 24 22 22 21 20 19 17 17 15 13 12 10 9 8 7 6 6 6 6 7 9 9 10 10 10 11 11 12 12 12 13 13 12 13 14 14 12 12 11 11 11 11 12 11 10 11 10 12 12 9
28 27 27 28 29 29 27 25 26 26 26 26 23 22 22 21 21 19 18 17 15 13 13 12 10 9 8 8 7 7 7 7 9 10 11 11 11 11 12 12 13 13 13 13 12 13 14 13 13 12 11 11 12 12 11 10 10 12 11 11 12 10
29 29 29 28 29 29 27 26 26 27 26 25 23 23 22 21 21 20 18 18 15 13 14 13 11 10 9 9 8 8 8 9 10 11 12 12 12 12 12 13 13 13 14 12 13 14 13 13 13 12 12 11 11 11 11 10 10 11 11 10 10 10
30 31 29 29 29 28 27 27 27 28 27 25 24 24 23 22 22 20 19 18 16 15 15 13 11 12 11 10 10 9 9 10 11 11 12 12 12 12 12 13 14 14 14 13 13 13 12 13 13 12 11 10 10 11 10 10 10 10 10 9 9 10
31 31 30 30 29 28 28 28 27 28 27 25 24 24 24 24 23 20 19 19 16 16 16 13 12 14 12 11 11 10 10 11 11 11 11 11 12 12 13 14 14 14 14 13 13 13 12 12 12 11 10 9 9 10 10 10 11 10 9 9 9 9
Wind_Direction
161 161 158 158 158 163 167 170 172 173 176 169 163 160 150 134 122 114 113 113 108 93 74 103 133 142 164 167 170 167 165 165 160 162 166 175 182 184 199 216 232 241 251 255 260 260 258 271 324 8 28 42 19 355 350 7 35 54 59 40 24 34
165 164 161 158 160 168 169 171 175 176 175 167 161 155 146 135 123 114 114 116 117 128 83 74 122 143 161 164 170 167 167 175 169 168 170 175 184 192 203 216 235 243 251 255 261 259 256 263 268 350 45 53 11 331 337 21 58 71 66 40 35 43
167 168 163 157 164 171 168 173 176 174 173 164 158 152 147 139 135 132 125 119 122 156 194 173 140 164 168 169 176 173 170 179 177 177 180 182 192 200 216 230 239 249 254 258 255 255 255 260 268 276 261 105 2 300 334 65 84 87 81 64 54 50
170 170 162 159 168 169 165 170 170 172 174 162 157 153 153 153 159 174 168 153 140 167 187 186 168 173 188 179 175 180 178 183 186 189 191 196 204 210 226 235 248 257 252 259 263 268 264 250 261 274 219 148 251 314 77 106 106 102 96 82 70 61
172 169 165 165 166 167 169 170 168 173 173 159 158 162 175 180 180 190 183 180 177 179 189 185 171 174 192 177 171 187 187 190 194 198 205 207 213 227 244 246 258 268 260 266 272 273 264 242 245 250 187 146 265 341 99 117 115 109 103 90 85 76
174 169 168 168 165 169 174 173 169 171 176 173 169 172 189 191 189 192 183 186 187 180 180 176 171 174 187 183 176 191 201 211 213 218 225 222 226 235 248 250 250 261 264 264 265 263 249 226 237 271 165 139 153 65 104 118 117 110 105 97 94 81
176 171 169 169 168 172 175 174 172 170 179 187 179 176 187 190 193 196 188 189 190 182 180 184 186 185 192 192 189 201 217 228 228 227 228 231 238 234 237 242 239 241 240 244 246 250 279 257 215 337 61 130 134 111 113 123 123 109 90 77 76 64
175 173 172 171 169 172 175 174 173 176 183 183 178 180 187 189 195 200 195 192 193 192 191 197 205 204 210 208 198 204 224 237 235 229 226 231 241 238 229 218 223 210 173 222 242 222 265 282 164 355 69 109 112 116 122 125 126 117 87 63 63 57
174 173 174 172 170 171 174 173 173 184 191 181 179 186 188 190 192 197 197 193 197 199 199 208 206 186 198 203 176 172 201 231 235 238 238 227 231 240 232 207 225 212 178 228 249 192 241 265 195 150 97 95 93 108 123 128 131 125 94 72 69 67
174 174 174 172 173 172 171 173 176 186 191 182 180 185 186 191 194 193 198 197 199 202 190 181 192 179 179 196 173 164 184 211 214 258 259 223 211 228 227 203 200 203 174 182 214 179 257 273 197 138 96 91 90 92 106 124 139 138 112 90 80 76
172 174 175 174 175 173 172 175 179 186 189 184 182 184 185 192 195 191 199 197 187 198 182 157 175 200 188 205 204 177 183 192 180 198 233 235 234 200 194 184 159 170 154 131 147 132 56 44 47 74 88 83 84 86 84 93 115 132 123 100 86 77
168 173 175 175 175 173 174 175 182 186 183 184 186 185 186 192 192 192 194 182 172 186 190 174 179 184 179 188 192 180 182 187 184 182 188 222 294 267 213 171 139 160 151 132 134 100 81 74 54 59 75 78 76 79 78 78 86 93 98 100 84 71
167 174 175 175 174 172 173 174 182 185 180 185 186 182 189 194 187 192 185 166 185 191 180 182 180 178 178 176 176 175 175 176 179 174 150 143 273 250 228 184 145 155 144 136 129 105 93 92 82 71 70 74 75 74 75 73 73 77 82 88 79 62
166 174 176 175 172 170 172 174 178 181 182 183 181 183 190 192 185 189 176 160 201 198 150 170 174 177 173 159 166 160 149 155 158 156 136 128 220 241 231 158 124 134 138 135 127 118 115 102 86 80 76 74 72 72 76 73 72 77 76 81 82 74
166 173 176 176 173 171 171 173 178 179 182 178 178 188 187 187 186 182 170 162 192 173 125 165 172 174 158 141 154 148 136 144 156 167 137 125 249 263 206 70 96 113 109 127 135 124 119 109 82 74 78 81 74 71 76 72 72 77 75 71 69 68
171 176 176 177 174 173 172 174 180 181 180 177 178 189 186 187 186 170 160 159 173 155 133 170 171 168 154 139 147 145 135 131 142 165 124 116 261 262 91 87 98 111 118 131 145 120 107 105 94 80 78 82 74 71 75 70 69 73 76 73 61 53
175 176 177 178 174 173 174 174 181 180 178 179 180 188 187 184 174 154 156 165 169 152 139 159 167 160 155 145 145 147 135 123 116 100 105 284 271 257 257 110 103 120 172 143 40 119 120 108 104 93 81 82 73 70 75 73 74 74 75 74 66 57
176 177 177 177 175 174 175 174 179 179 178 180 182 189 183 173 167 157 163 171 162 150 145 150 156 150 147 147 149 144 126 119 113 96 173 225 249 233 248 150 119 355 171 110 34 97 121 113 106 97 84 83 76 75 79 76 80 80 76 72 68 61
176 177 178 177 175 172 173 175 177 177 178 180 183 185 173 163 160 155 164 171 158 152 147 143 152 142 130 143 153 141 121 116 121 146 194 237 245 178 194 209 176 153 101 52 67 103 120 117 109 100 91 88 80 79 83 81 80 77 77 76 73 73
176 178 177 175 174 173 174 176 176 176 178 181 182 176 166 160 152 146 163 177 157 146 139 135 150 147 132 148 153 124 123 119 156 211 224 244 268 147 192 223 288 178 154 110 112 119 129 126 113 101 96 98 91 85 85 83 81 77 80 83 85 93
177 177 175 173 173 176 178 178 177 179 180 180 178 168 159 157 150 149 162 171 150 136 129 127 134 137 139 150 145 124 142 161 216 230 230 244 272 294 197 178 357 179 140 128 126 131 143 139 122 108 101 106 104 92 85 81 84 85 83 85 88 88
176 176 176 178 177 177 181 181 179 179 179 176 173 166 160 157 149 145 147 153 145 129 122 125 126 127 133 144 151 152 167 181 203 214 203 227 250 255 232 184 160 154 138 142 130 137 151 145 133 138 136 127 115 100 95 92 92 95 89 87 87 77
175 174 177 180 178 180 181 180 179 178 178 173 170 168 158 150 142 138 137 136 136 129 126 128 125 124 129 136 151 152 158 177 196 215 217 227 217 225 248 182 158 152 151 160 135 133 151 148 149 159 156 148 140 128 114 117 115 102 98 106 110 108
174 173 176 177 177 182 182 178 177 177 177 167 160 160 150 142 140 136 136 137 141 146 141 129 122 127 127 123 142 150 151 170 181 200 234 229 179 193 205 138 148 149 146 161 147 131 145 148 140 149 155 212 175 161 153 155 142 123 131 127 111 126
174 173 175 177 178 180 180 178 174 169 164 155 149 151 148 146 149 141 138 145 150 150 141 129 128 131 122 101 143 173 159 184 185 167 183 163 150 162 161 146 148 152 133 133 139 125 114 144 133 130 89 359 156 164 47 149 146 146 174 145 94 100
173 173 175 177 178 179 180 180 173 161 153 151 151 159 162 158 158 152 146 144 143 142 138 134 130 129 128 99 42 103 119 139 154 137 141 148 144 136 130 128 126 127 90 96 121 120 107 121 124 113 53 37 75 5 77 151 155 150 175 158 129 128
174 175 174 175 177 179 181 181 175 165 159 159 160 168 172 165 161 155 148 145 149 151 145 135 127 128 146 123 106 107 110 122 134 135 138 134 133 131 124 119 112 114 110 100 106 120 118 115 105 85 69 75 89 53 84 143 149 118 158 174 177 168
176 176 173 174 177 179 180 178 175 170 165 165 165 170 171 164 161 154 149 154 159 154 140 131 130 136 138 126 118 111 114 121 123 130 132 124 122 124 126 126 115 112 121 110 94 105 109 102 99 91 88 88 87 86 80 83 68 62 149 162 181 180
177 177 174 176 179 181 180 177 174 171 170 171 170 170 165 159 158 155 155 161 162 154 144 138 139 152 161 144 124 113 119 121 118 128 129 125 127 123 119 122 120 117 120 111 98 99 96 87 87 79 73 74 77 85 79 62 38 20 35 160 171 174
178 178 176 179 181 181 181 177 174 174 175 172 166 163 160 157 157 158 162 166 163 157 149 145 150 170 174 144 127 119 124 125 121 124 123 120 127 125 118 113 113 115 119 115 105 101 95 90 87 74 63 62 60 55 53 49 31 19 7 341 17 160
182 180 178 181 183 181 181 178 177 179 177 168 161 161 158 157 161 164 166 165 161 155 147 152 165 179 160 120 119 123 127 130 122 119 120 117 116 115 113 110 108 108 110 108 103 99 93 90 87 79 70 66 62 54 50 46 31 21 13 4 356 328
183 182 180 182 184 183 181 180 181 182 175 166 163 165 163 162 165 167 163 158 157 151 148 156 166 174 160 121 127 132 128 130 127 124 124 119 114 112 110 109 106 105 104 103 103 101 94 88 83 79 75 69 67 65 58 49 39 31 21 13 1 342
183 183 182 183 185 184 182 183 184 180 173 167 165 167 167 167 168 166 162 159 156 151 154 164 167 169 168 157 153 145 138 139 134 129 127 123 118 116 114 112 110 108 107 105 105 104 96 90 87 84 81 76 72 71 65 56 48 44 32 26 24 359
184 185 185 186 186 185 183 185 185 179 173 168 167 168 168 170 171 167 164 164 159 155 162 170 171 171 170 169 164 157 150 143 137 132 130 125 118 116 116 113 112 110 106 104 105 104 98 94 92 88 85 81 75 71 67 63 60 55 45 36 32 10
184 185 187 187 187 186 185 185 183 178 173 170 170 170 168 169 169 166 167 167 160 161 170 173 176 177 172 170 167 163 155 141 139 138 132 127 122 121 121 117 115 112 105 105 106 104 99 95 92 87 85 83 80 77 69 65 66 61 54 45 33 18
186 184 185 187 187 187 183 181 179 176 173 171 170 168 166 167 166 166 169 167 164 169 172 171 177 175 169 171 169 164 157 145 141 139 132 130 126 124 124 119 115 110 103 101 101 100 99 95 91 88 86 84 82 79 73 71 70 62 56 52 37 27
186 183 184 186 186 185 180 176 175 175 173 171 169 167 166 166 165 166 169 167 168 171 167 164 171 169 167 172 169 163 158 148 142 139 134 132 128 125 123 117 113 111 108 106 102 99 97 95 93 91 88 90 90 80 74 72 67 59 51 49 40 33